{"data":{"norad_id":44071,"epoch":"2026-05-24T12:37:46.270272Z","epoch_age_seconds":115684,"freshness":"FRESH","line1":"1 44071U 19014A   26144.52622998  .00000042  00000+0  00000+0 0  9995","line2":"2 44071   0.0151 334.1212 0000448  18.8951 138.8528  1.00271850 26387","mean_motion":1.0027185,"eccentricity":4.48e-5,"inclination_deg":0.0151,"raan_deg":334.1212,"arg_perigee_deg":18.8951,"mean_anomaly_deg":138.8528,"bstar":0,"rev_number":2638,"period_min":1436.0959730971,"perigee_km":35784.687760165,"apogee_km":35788.465718516,"semimajor_km":42164.713739341,"source":"CELESTRAK","updated_at":"2026-05-25T13:38:14.062542Z"}}